Rock Springs, WY

10:56 PM MDT on September 27, 2016 (GMT -0600)
Rock Springs-Sweetwater

Weather History for KRKS - October, 2012

Change the Weather History Date:

Tuesday, October 16, 2012

  Actual Average Record
Temperature  
Mean Temperature 52 °F 44 °F  
Max Temperature 67 °F 57 °F 76 °F (1991)
Min Temperature 36 °F 32 °F 14 °F (1966)
Degree Days  
Heating Degree Days 13 21  
Month to date heating degree days 268 285  
Since 1 July heating degree days 397 613  
Cooling Degree Days 0 0  
Month to date cooling degree days 0 0  
Year to date cooling degree days 541 286  
Growing Degree Days 2 (Base 50)    
Moisture  
Dew Point 33 °F    
Average Humidity 57    
Maximum Humidity 82    
Minimum Humidity 31    
Precipitation  
Precipitation T in 0.03 in 0.39 in (1980)
Month to date precipitation 0.01 0.46  
Year to date precipitation 2.70 7.16  
Snow  
Snow 0.00 in - - ()
Snow Depth 0.00 in    
Sea Level Pressure  
Sea Level Pressure 29.77 in    
Wind  
Wind Speed 23 mph (WSW)    
Max Wind Speed 41 mph    
Max Gust Speed 62 mph    
Visibility 9 miles    
Events Rain    
T = Trace of Precipitation, MM = Missing Value Source: NWS Daily Summary

Daily Weather History Graph

Daily Weather History Graph

Search for Another Location

Airport or City:

Trip Planner

Search our weather history database for the weather conditions in past years. The results will help you decide how hot, cold, wet, or windy it might be!

Date:

Astronomy

Oct. 16, 2012 Rise Set
Actual Time 7:30 AM MDT 6:32 PM MDT
Civil Twilight 7:01 AM MDT 7:00 PM MDT
Nautical Twilight 6:29 AM MDT 7:32 PM MDT
Astronomical Twilight 5:57 AM MDT 8:04 PM MDT
Moon 8:58 AM MDT (10/16) 7:17 PM MDT (10/16)
Length of Visible Light 11h 58m
Length of Day
11h 02m
New Moon, 2% of the Moon is Illuminated
Oct 16
New Moon
Oct 21
First Quarter
Oct 29
Full
Nov 6
Last Quarter
Nov 13
New

Hourly Weather History & Observations

Time (MDT) Temp. Windchill Dew Point Humidity Pressure Visibility Wind Dir Wind Speed Gust Speed Precip Events Conditions
12:54 AM 46.9 °F - 30.0 °F 52% 29.93 in 10.0 mi WSW 18.4 mph - N/A   Clear
1:54 AM 45.0 °F 37.1 °F 30.0 °F 56% 29.92 in 10.0 mi WSW 19.6 mph - N/A   Clear
2:54 AM 46.0 °F 39.3 °F 30.0 °F 54% 29.90 in 10.0 mi WSW 16.1 mph - N/A   Clear
3:54 AM 44.1 °F 37.1 °F 28.9 °F 55% 29.89 in 10.0 mi SW 15.0 mph - N/A   Clear
4:54 AM 46.0 °F 39.3 °F 28.9 °F 51% 29.87 in 10.0 mi SW 16.1 mph - N/A   Partly Cloudy
6:54 AM 48.9 °F - 30.0 °F 48% 29.84 in 10.0 mi SSW 8.1 mph - N/A   Clear
7:54 AM 48.9 °F - 28.9 °F 46% 29.83 in 10.0 mi SW 10.4 mph - N/A   Mostly Cloudy
8:54 AM 53.1 °F - 28.9 °F 40% 29.80 in 10.0 mi SW 16.1 mph - N/A   Scattered Clouds
9:54 AM 54.0 °F - 30.9 °F 41% 29.79 in 10.0 mi WSW 21.9 mph 28.8 mph 0.00 in Rain Light Rain
10:54 AM 61.0 °F - 30.9 °F 32% 29.73 in 10.0 mi West 29.9 mph 39.1 mph 0.00 in   Clear
11:54 AM 63.0 °F - 32.0 °F 31% 29.70 in 10.0 mi West 29.9 mph 46.0 mph N/A   Partly Cloudy
12:54 PM 64.9 °F - 33.1 °F 31% 29.64 in 10.0 mi WSW 36.8 mph 48.3 mph N/A   Overcast
1:54 PM 61.0 °F - 35.1 °F 38% 29.62 in 10.0 mi West 31.1 mph 43.7 mph N/A   Overcast
2:54 PM 64.0 °F - 36.0 °F 35% 29.56 in 10.0 mi West 31.1 mph 50.6 mph N/A   Mostly Cloudy
3:54 PM 63.0 °F - 36.0 °F 37% 29.57 in 10.0 mi West 41.4 mph 56.4 mph N/A   Mostly Cloudy
4:51 PM 48.2 °F - 42.8 °F 82% 29.82 in 1.8 mi WNW 35.7 mph 56.4 mph 0.00 in Rain Rain
4:54 PM 48.0 °F - 43.0 °F 83% 29.70 in 1.2 mi WNW 34.5 mph 56.4 mph 0.00 in Rain Rain
5:08 PM 46.4 °F 36.3 °F 41.0 °F 81% 29.83 in 3.0 mi WNW 36.8 mph 50.6 mph N/A Rain Light Rain
5:54 PM 46.0 °F 37.4 °F 39.9 °F 79% 29.72 in 9.0 mi West 25.3 mph 47.2 mph N/A Rain Light Rain
6:54 PM 45.0 °F 35.8 °F 36.0 °F 71% 29.72 in 10.0 mi West 26.5 mph 34.5 mph N/A   Overcast
7:54 PM 43.0 °F 34.0 °F 37.9 °F 82% 29.74 in 10.0 mi WSW 21.9 mph - N/A   Partly Cloudy
8:54 PM 43.0 °F 33.1 °F 35.1 °F 74% 29.74 in 10.0 mi WSW 26.5 mph 35.7 mph N/A   Clear
9:54 PM 41.0 °F 30.5 °F 30.9 °F 67% 29.77 in 10.0 mi WSW 26.5 mph 33.4 mph N/A   Clear
10:54 PM 39.0 °F 27.8 °F 23.0 °F 53% 29.76 in 10.0 mi WSW 26.5 mph - N/A   Clear
11:54 PM 37.0 °F 25.9 °F 21.9 °F 54% 29.77 in 10.0 mi WSW 23.0 mph 34.5 mph N/A   Clear